Flag for U.S.A. Weather past 2 weeks in Lafayette, Louisiana, U.S.A.

Now
78 °F

Sunny.


Feels Like: 81 °F
Forecast: 75 / 89 °F
Wind: 3 mph from Southeast

Location: Lafayette Regional Airport

Current Time: Aug 28, 2014 at 8:47:32 AM

Latest Report: Aug 28, 2014 at 7:53 AM


Visibility: 10 mi

Pressure: 29.97 "Hg

Humidity: 93%

Dew point: 76 °F

Location of LafayetteLocation

Historic Weather in Lafayette — Graph

°F

Lafayette temperature yesterday

Maximum temperature yesterday: 90 °F (at 1:53 PM)
Minimum temperature yesterday: 75 °F (at 4:53 AM)
Average temperature yesterday: 81 °F

Past Weeks' High & Low Weather Summary

 TemperatureHumidityPressure
High94 °F (Aug 22, 2:53 PM)97% (Aug 18, 4:53 AM)30.13 "Hg (Aug 18, 4:53 AM)
Low69 °F (Aug 14, 5:53 AM)42% (Aug 14, 1:53 PM)29.85 "Hg (Aug 25, 3:53 PM)
Average82 °F79%30.00 "Hg
* Reported Aug 13 6:53 AM — Aug 28 6:53 AM, Lafayette, Weather by CustomWeather, © 2014

Note: Actual official high and low records may vary slightly from our data, if they occured in-between our weather recording intervals... More about our weather records

Advertising

Lafayette weather history for previous 24 hours

 ConditionsComfort  
Time TempWeatherWind HumidityBarometerVisibility
6:53 AM
Aug 28
76 °FClear.No wind94%29.96 "Hg10 mi
5:53 AM76 °FClear.No wind94%29.96 "Hg10 mi
4:53 AM77 °FClear.No wind90%29.96 "Hg10 mi
3:53 AM77 °FClear.3 mph90%29.96 "Hg10 mi
2:53 AM77 °FClear.No wind90%29.97 "Hg10 mi
1:53 AM77 °FClear.3 mph90%29.98 "Hg10 mi
12:53 AM78 °FClear.No wind87%29.98 "Hg10 mi
11:53 PM
Aug 27
78 °FClear.No wind87%29.99 "Hg10 mi
10:53 PM78 °FClear.No wind87%29.98 "Hg10 mi
9:53 PM79 °FClear.No wind84%29.98 "Hg10 mi
8:53 PM79 °FClear.No wind84%29.98 "Hg10 mi
7:53 PM80 °FOvercast.No wind79%29.97 "Hg10 mi
6:53 PM81 °FPassing clouds.5 mph79%29.97 "Hg10 mi
5:53 PM83 °FSunny.10 mph72%29.98 "Hg10 mi
4:53 PM88 °FPassing clouds.7 mph61%29.96 "Hg10 mi
3:53 PM90 °FPassing clouds.8 mph59%29.95 "Hg10 mi
2:53 PM89 °FBroken clouds.5 mph61%29.98 "Hg10 mi
1:53 PM90 °FPassing clouds.3 mph61%30.00 "Hg10 mi
12:53 PM89 °FScattered clouds.5 mph61%30.01 "Hg10 mi
11:53 AM88 °FPartly sunny.8 mph63%30.03 "Hg10 mi
10:53 AM86 °FPassing clouds.7 mph67%30.02 "Hg10 mi
9:53 AM81 °FSunny.6 mph79%30.01 "Hg10 mi
8:53 AM79 °FSunny.7 mph88%30.01 "Hg10 mi
Weather by CustomWeather, © 2014

See weather overviewHow to use our weather pages